This demonstration page uses our WeatherBlox Daily Observations layout. Learn more.

Left ArrowRight Arrow

Hourly Observations for October 2, 2021

Temp ( °F °C ) Dew Point ( °F °C ) Humidity (%) Winds ( mph kmh ) Pressure ( in mb ) Visibility ( mi km ) Precip ( " mm )
12:53 am 00:53 Clear 67 19.4 65 18.3 93 93 Calm 30.17 1022 9 14 0.00 0.00
1:53 am 01:53 Clear 66 18.9 64 17.8 93 93 Calm 30.17 1022 7 11 0.00 0.00
2:53 am 02:53 Clear 66 18.9 65 18.3 96 96 Calm 30.18 1022 7 11 0.00 0.00
3:53 am 03:53 Clear with Mist and Fog 66 18.9 64 17.8 93 93 Calm 30.18 1022 5 8 0.00 0.00
4:22 am 04:22 Mostly Cloudy with Mist and Fog 66 18.9 65 18.3 96 96 Calm 30.19 1022 6 10 0.00 0.00
4:53 am 04:53 Mostly Cloudy 65 18.3 64 17.8 97 97 Calm 30.18 1022 7 11 0.00 0.00
5:05 am 05:05 Mostly Cloudy with Mist and Fog 65 18.3 64 17.8 97 97 Calm 30.19 1022 6 10 0.00 0.00
5:12 am 05:12 Cloudy with Mist and Fog 65 18.3 64 17.8 97 97 Calm 30.19 1022 6 10 0.00 0.00
5:51 am 05:51 Cloudy with Mist and Fog 66 19 66 19 100 100 Calm 30.20 1023 6 10 0.00 0.00
5:53 am 05:53 Cloudy with Mist and Fog 67 19.4 66 18.9 97 97 Calm 30.19 1022 6 10 0.00 0.00
6:36 am 06:36 Cloudy with Mist and Fog 68 20 66 18.9 93 93 Calm 30.20 1023 5 8 0.00 0.00
6:53 am 06:53 Cloudy with Mist and Fog 67 19.4 65 18.3 93 93 Calm 30.20 1023 4 6 0.00 0.00
7:53 am 07:53 Cloudy 69 20.6 67 19.4 93 93 Calm 30.22 1023 7 11 0.00 0.00
8:01 am 08:01 Cloudy 69 20.6 67 19.4 93 93 Calm 30.22 1023 7 11 0.00 0.00
8:53 am 08:53 Cloudy 70 21.1 68 20 93 93 Calm 30.23 1024 9 14 0.00 0.00
9:26 am 09:26 Cloudy 71 21.7 67 19.4 87 87 S 5 7 30.23 1024 10 16 0.00 0.00
9:53 am 09:53 Cloudy 72 22.2 68 20 87 87 S 5 7 30.23 1024 10 16 0.00 0.00
10:30 am 10:30 Cloudy 73 22.8 67 19.4 81 81 VRB 6 9 30.22 1023 10 16 0.00 0.00
10:53 am 10:53 Cloudy 73 22.8 65 18.3 76 76 S 7 11 30.22 1024 10 16 0.00 0.00
11:53 am 11:53 Mostly Cloudy 75 23.9 65 18.3 71 71 S 6 9 30.21 1023 10 16 0.00 0.00
12:28 pm 12:28 Mostly Cloudy 76 24.4 66 18.9 72 72 ESE 3 6 30.19 1022 10 16 0.00 0.00
12:53 pm 12:53 Mostly Cloudy 77 25 66 18.9 69 69 SE 8 13 30.19 1023 10 16 0.00 0.00
1:53 pm 13:53 Mostly Sunny 79 26.1 66 18.9 65 65 SSE 8 13 30.18 1022 10 16 0.00 0.00
2:53 pm 14:53 Mostly Sunny 79 26.1 65 18.3 62 62 Calm 30.16 1021 10 16 0.00 0.00
3:53 pm 15:53 Sunny 79 26.1 64 17.8 60 60 VRB 3 6 30.14 1021 10 16 0.00 0.00
4:53 pm 16:53 Mostly Sunny 80 26.7 64 17.8 58 58 ESE 3 6 30.12 1020 10 16 0.00 0.00
5:53 pm 17:53 Mostly Sunny 79 26.1 64 17.8 60 60 E 5 7 30.10 1019 10 16 0.00 0.00
6:53 pm 18:53 Sunny 78 25.6 65 18.3 64 64 SE 5 7 30.10 1019 10 16 0.00 0.00
7:53 pm 19:53 Clear 76 24.4 65 18.3 69 69 ESE 5 7 30.10 1019 10 16 0.00 0.00
8:53 pm 20:53 Clear 70 21.1 66 18.9 87 87 Calm 30.11 1020 10 16 0.00 0.00
9:53 pm 21:53 Clear 68 20 66 18.9 93 93 Calm 30.11 1020 10 16 0.00 0.00
10:53 pm 22:53 Clear 69 20.6 66 18.9 90 90 Calm 30.11 1020 10 16 0.00 0.00
11:53 pm 23:53 Mostly Cloudy 69 20.6 66 18.9 90 90 Calm 30.12 1020 10 16 0.00 0.00

Powered by AerisWeather